{"data":{"norad_id":57610,"intl_designator":"2023-119J","name":"STARLINK-30248","alt_names":[],"object_type":"PAYLOAD","status":"ACTIVE","operator":null,"country":"US","launch_date":"2023-08-11","launch_site_code":"AFETR","launch_vehicle":null,"mission":null,"orbit_class":"UNKNOWN","rcs_meters":null,"size_class":null,"mass_kg":null,"dimensions":null,"purposes":["comms"],"wikipedia_slug":null,"has_3d_model":false,"image_url":null,"decayed_at":null,"tle_current":{"epoch":"2026-05-25T00:20:35.480256Z","epoch_age_seconds":80757,"freshness":"FRESH","line1":"1 57610U 23119J   26145.01429954  .00000045  00000+0  11169-4 0  9997","line2":"2 57610  43.0040  10.1591 0001377 260.0232 100.0464 15.27578516154767","mean_motion":15.27578516,"eccentricity":0.0001377,"inclination_deg":43.004,"raan_deg":10.1591,"arg_perigee_deg":260.0232,"mean_anomaly_deg":100.0464,"bstar":1.1169e-5,"rev_number":15476,"period_min":94.266840291174,"perigee_km":482.1087537358,"apogee_km":483.99832561043,"semimajor_km":6861.1905396731,"source":"CELESTRAK","updated_at":"2026-05-25T13:38:18.356451Z"}}}